Simultaneous Nadir Overpasses (SNOs) Predictions

Prediction of SNOs between LANDSAT-8 and METOP-B Satellite Orbit:

Table of predicted SNOs for the next 14.0 days since TLE Epoch: 11/9/2024
Index Date (LANDSAT-8) Time (LANDSAT-8) Lat,Lon (LANDSAT-8) SZA (LANDSAT-8 ) Date (METOP-B) Time (METOP-B) Lat,Lon (METOP-B) SZA (METOP-B ) Distance(km) Time Diff (sec)
1 11/11/2024 18:13:57 -81.41, 131.43 78.09 11/11/2024 18:13:47 -81.41, 131.27 78.11 2.68 10
2 11/11/2024 19:03:23 81.41, -60.82 101.94 11/11/2024 19:04:26 81.42, -60.83 101.97 0.46 63
3 11/14/2024 13:48:08 -81.42,-161.93 77.34 11/14/2024 13:47:52 -81.41,-161.88 77.34 0.77 16
4 11/14/2024 14:37:34 81.42, 5.79 102.69 11/14/2024 14:38:32 81.42, 5.59 102.69 3.25 58
5 11/17/2024 09:22:19 -81.41, -95.61 76.67 11/17/2024 09:21:59 -81.41, -95.70 76.69 1.54 20
6 11/17/2024 10:11:45 81.41, 72.07 103.34 11/17/2024 10:12:38 81.42, 72.14 103.38 1.40 53
7 11/20/2024 04:56:28 -81.41, -29.22 76.05 11/20/2024 04:56:05 -81.41, -29.39 76.08 2.78 23
8 11/20/2024 05:45:53 81.42, 138.81 104.01 11/20/2024 05:46:43 81.42, 138.83 104.04 0.65 50
9 11/23/2024 00:30:33 -81.42, 37.61 75.42 11/23/2024 00:30:08 -81.41, 37.45 75.46 2.89 25



Historial Predications of SNOs between LANDSAT-8 and METOP-B
